Location: Newark
(39.6867°N, 100.6772°W)
Time: 13:16:01
(UTC+00:00)

Vanguard 1 - Pass Details

Date: 20 October 2019
Orbit: 652 x 3831 km, 34.2° (Epoch: 17 November)

Event Time Altitude Azimuth Distance (km) Brightness Sun altitude
Rises 22:39:08 0° 182° (S) 3,324 13.2 13.2°
Reaches altitude 10° 22:43:41 10° 145° (SE) 2,835 12.4 12.4°
Maximum altitude 22:45:27 11° 130° (SE) 2,953 12.3 12.1°
Drops below altitude 10° 22:47:24 10° 115° (ESE) 3,261 12.4 11.8°
Sets 22:54:21 0° 85° (E) 5,091 13.1 10.5°
